When you browse on this site, cookies collect data to enhance your experience and personalize the content and advertising you see.
Visit our Privacy Policy to learn more. By continuing to use the site, you agree to this use of cookies and data.

Meteo pe oră la Lipovec

Astăzi, 5 Iulie, Duminică

Timp Temperatura Precipitaţii Vânt Presiune Umiditate
00:00 +19°C° 0 mm 3 m/s 737 mmHg 96%
01:00 +18°C° 0 mm 3 m/s 737 mmHg 96%
02:00 +18°C° 0 mm 3 m/s 738 mmHg 97%
03:00 +18°C° 0 mm 3 m/s 737 mmHg 96%
04:00 +18°C° 0 mm 3 m/s 737 mmHg 95%
05:00 +18°C° 0 mm 3 m/s 737 mmHg 94%
06:00 +19°C° 0 mm 3 m/s 737 mmHg 90%
07:00 +21°C° 0 mm 4 m/s 738 mmHg 85%
08:00 +22°C° 0 mm 4 m/s 738 mmHg 81%
09:00 +23°C° 0 mm 4 m/s 738 mmHg 76%
10:00 +25°C° 0 mm 4 m/s 738 mmHg 72%
11:00 +27°C° 0 mm 4 m/s 738 mmHg 68%
12:00 +27°C° 0 mm 4 m/s 738 mmHg 66%
13:00 +27°C° 0 mm 4 m/s 738 mmHg 64%
14:00 +27°C° 0 mm 3 m/s 738 mmHg 62%
15:00 +27°C° 0 mm 3 m/s 738 mmHg 63%
16:00 +27°C° 0 mm 3 m/s 737 mmHg 64%
17:00 +27°C° 0 mm 3 m/s 737 mmHg 65%
18:00 +26°C° 0 mm 3 m/s 737 mmHg 71%
19:00 +24°C° 0 mm 3 m/s 737 mmHg 76%
20:00 +23°C° 0 mm 2 m/s 737 mmHg 81%
21:00 +21°C° 0 mm 2 m/s 737 mmHg 83%
22:00 +20°C° 0 mm 2 m/s 737 mmHg 85%
23:00 +19°C° 0 mm 2 m/s 737 mmHg 86%

Mâine, 6 Iulie, Luni

Timp Temperatura Precipitaţii Vânt Presiune Umiditate
00:00 +19°C° 0 mm 2 m/s 737 mmHg 87%
01:00 +18°C° 0 mm 2 m/s 737 mmHg 87%
02:00 +18°C° 0 mm 2 m/s 737 mmHg 88%
03:00 +19°C° 0 mm 1 m/s 737 mmHg 88%
04:00 +19°C° 0 mm 1 m/s 737 mmHg 88%
05:00 +18°C° 0 mm 1 m/s 737 mmHg 89%
06:00 +20°C° 0 mm 1 m/s 737 mmHg 83%
07:00 +22°C° 0 mm 1 m/s 737 mmHg 78%
08:00 +24°C° 0 mm 2 m/s 737 mmHg 73%
09:00 +25°C° 0 mm 1 m/s 737 mmHg 67%
10:00 +26°C° 0 mm 1 m/s 736 mmHg 62%
11:00 +28°C° 0 mm 1 m/s 736 mmHg 57%
12:00 +28°C° 0 mm 1 m/s 736 mmHg 55%
13:00 +29°C° 0 mm 1 m/s 736 mmHg 53%
14:00 +29°C° 0 mm 1 m/s 735 mmHg 50%
15:00 +29°C° 0 mm 1 m/s 735 mmHg 52%
16:00 +29°C° 0 mm 1 m/s 734 mmHg 54%
17:00 +29°C° 0 mm 1 m/s 734 mmHg 56%
18:00 +27°C° 0 mm 1 m/s 734 mmHg 61%
19:00 +26°C° 0 mm 1 m/s 733 mmHg 67%
20:00 +24°C° 0 mm 1 m/s 733 mmHg 72%
21:00 +24°C° 0 mm 1 m/s 733 mmHg 73%
22:00 +23°C° 0 mm 1 m/s 733 mmHg 75%
23:00 +23°C° 0 mm 1 m/s 733 mmHg 76%

Poimâine, 7 Iulie, Marţi

Timp Temperatura Precipitaţii Vânt Presiune Umiditate
00:00 +22°C° 0 mm 1 m/s 733 mmHg 78%
01:00 +20°C° 0 mm 0 m/s 732 mmHg 79%
02:00 +20°C° 0 mm 0 m/s 732 mmHg 81%
03:00 +20°C° 0.7 mm 0 m/s 732 mmHg 83%
04:00 +19°C° 0.7 mm 0 m/s 732 mmHg 86%
05:00 +19°C° 0.7 mm 0 m/s 732 mmHg 89%
06:00 +22°C° 0.8 mm 1 m/s 732 mmHg 87%
07:00 +23°C° 0.8 mm 2 m/s 732 mmHg 86%
08:00 +22°C° 0.8 mm 3 m/s 732 mmHg 85%
09:00 +22°C° 1.3 mm 3 m/s 732 mmHg 87%
10:00 +21°C° 1.3 mm 3 m/s 732 mmHg 89%
11:00 +21°C° 1.3 mm 3 m/s 732 mmHg 91%
12:00 +21°C° 1.6 mm 4 m/s 732 mmHg 91%
13:00 +21°C° 1.6 mm 4 m/s 732 mmHg 91%
14:00 +20°C° 1.6 mm 5 m/s 732 mmHg 90%
15:00 +20°C° 0.3 mm 5 m/s 733 mmHg 91%
16:00 +19°C° 0.3 mm 6 m/s 733 mmHg 91%
17:00 +17°C° 0.3 mm 6 m/s 733 mmHg 91%
18:00 +16°C° 0 mm 7 m/s 733 mmHg 91%
19:00 +15°C° 0 mm 7 m/s 734 mmHg 90%
20:00 +13°C° 0 mm 8 m/s 734 mmHg 89%
21:00 +13°C° 0 mm 8 m/s 734 mmHg 88%
22:00 +12°C° 0 mm 7 m/s 735 mmHg 87%
23:00 +12°C° 0 mm 7 m/s 735 mmHg 87%

8 Iulie, Miercuri

Timp Temperatura Precipitaţii Vânt Presiune Umiditate
00:00 +12°C° 0.7 mm 7 m/s 735 mmHg 88%
01:00 +11°C° 0.7 mm 7 m/s 735 mmHg 90%
02:00 +11°C° 0.7 mm 6 m/s 736 mmHg 92%
03:00 +11°C° 1.1 mm 6 m/s 736 mmHg 92%
04:00 +11°C° 1.1 mm 6 m/s 736 mmHg 93%
05:00 +11°C° 1.1 mm 6 m/s 736 mmHg 93%
06:00 +13°C° 0.3 mm 5 m/s 736 mmHg 93%
07:00 +13°C° 0.3 mm 5 m/s 737 mmHg 92%
08:00 +13°C° 0.3 mm 5 m/s 737 mmHg 91%
09:00 +14°C° 0.1 mm 5 m/s 737 mmHg 86%
10:00 +15°C° 0.1 mm 5 m/s 737 mmHg 81%
11:00 +16°C° 0.1 mm 5 m/s 738 mmHg 77%
12:00 +17°C° 0 mm 5 m/s 738 mmHg 73%
13:00 +19°C° 0 mm 6 m/s 738 mmHg 68%
14:00 +19°C° 0 mm 6 m/s 738 mmHg 64%
15:00 +19°C° 0 mm 6 m/s 738 mmHg 65%
16:00 +19°C° 0 mm 6 m/s 738 mmHg 65%
17:00 +19°C° 0 mm 5 m/s 738 mmHg 66%
18:00 +17°C° 0 mm 5 m/s 738 mmHg 71%
19:00 +15°C° 0 mm 4 m/s 738 mmHg 77%
20:00 +14°C° 0 mm 3 m/s 738 mmHg 82%
21:00 +13°C° 0 mm 3 m/s 738 mmHg 84%
22:00 +13°C° 0 mm 3 m/s 738 mmHg 86%
23:00 +12°C° 0 mm 3 m/s 738 mmHg 88%

9 Iulie, Joi

Timp Temperatura Precipitaţii Vânt Presiune Umiditate
00:00 +12°C° 0 mm 3 m/s 739 mmHg 89%
01:00 +11°C° 0 mm 3 m/s 739 mmHg 91%
02:00 +11°C° 0 mm 3 m/s 739 mmHg 93%
03:00 +11°C° 0 mm 3 m/s 739 mmHg 92%
04:00 +11°C° 0 mm 3 m/s 739 mmHg 91%
05:00 +11°C° 0 mm 3 m/s 739 mmHg 90%
06:00 +12°C° 0.1 mm 3 m/s 739 mmHg 88%
07:00 +13°C° 0.1 mm 4 m/s 739 mmHg 87%
08:00 +14°C° 0.1 mm 4 m/s 739 mmHg 86%
09:00 +14°C° 0.3 mm 4 m/s 740 mmHg 85%
10:00 +15°C° 0.3 mm 4 m/s 740 mmHg 84%
11:00 +17°C° 0.3 mm 4 m/s 740 mmHg 83%
12:00 +18°C° 0.2 mm 4 m/s 740 mmHg 77%
13:00 +19°C° 0.2 mm 5 m/s 740 mmHg 71%
14:00 +21°C° 0.2 mm 5 m/s 740 mmHg 66%
15:00 +21°C° 0.1 mm 5 m/s 740 mmHg 66%
16:00 +20°C° 0.1 mm 5 m/s 740 mmHg 67%
17:00 +20°C° 0.1 mm 5 m/s 740 mmHg 68%
18:00 +19°C° 0 mm 4 m/s 740 mmHg 73%
19:00 +17°C° 0 mm 3 m/s 740 mmHg 79%
20:00 +16°C° 0 mm 3 m/s 741 mmHg 84%
21:00 +15°C° 0 mm 2 m/s 741 mmHg 86%
22:00 +14°C° 0 mm 2 m/s 741 mmHg 88%
23:00 +14°C° 0 mm 2 m/s 741 mmHg 89%

10 Iulie, Vineri

Timp Temperatura Precipitaţii Vânt Presiune Umiditate
00:00 +13°C° 0 mm 2 m/s 742 mmHg 90%
01:00 +13°C° 0 mm 2 m/s 742 mmHg 91%
02:00 +12°C° 0 mm 2 m/s 742 mmHg 91%
03:00 +12°C° 0 mm 2 m/s 742 mmHg 91%
04:00 +12°C° 0 mm 2 m/s 742 mmHg 91%
05:00 +12°C° 0 mm 1 m/s 742 mmHg 91%
06:00 +14°C° 0 mm 1 m/s 742 mmHg 84%
07:00 +16°C° 0 mm 1 m/s 742 mmHg 77%
08:00 +19°C° 0 mm 1 m/s 743 mmHg 70%
09:00 +21°C° 0 mm 1 m/s 743 mmHg 65%
10:00 +22°C° 0 mm 1 m/s 743 mmHg 60%
11:00 +23°C° 0 mm 1 m/s 743 mmHg 55%
12:00 +23°C° 0 mm 1 m/s 743 mmHg 55%
13:00 +23°C° 0 mm 1 m/s 742 mmHg 55%
14:00 +23°C° 0 mm 1 m/s 742 mmHg 55%
15:00 +24°C° 0 mm 1 m/s 742 mmHg 56%
16:00 +24°C° 0 mm 1 m/s 742 mmHg 56%
17:00 +24°C° 0 mm 1 m/s 742 mmHg 57%
18:00 +22°C° 0 mm 1 m/s 742 mmHg 61%
19:00 +20°C° 0 mm 2 m/s 741 mmHg 66%
20:00 +19°C° 0 mm 2 m/s 741 mmHg 71%
21:00 +18°C° 0 mm 2 m/s 741 mmHg 72%
22:00 +17°C° 0 mm 2 m/s 741 mmHg 73%
23:00 +16°C° 0 mm 2 m/s 742 mmHg 74%
Arată mai mult